Weather in Sylhet

Bangladesh     24°53′47″N   91°52′36″E
temp.,
°C
wind,
m/s
gust,
m/s
humid.,
%
clouds,
%
prec.,
mm/h
press.,
hPa
HPBL,
m
11 april, sun
sun1100:00+25nw22590 0.0 101120
03:00+24ese22650 0.0 100928
06:00+23ene11690 0.0 101214
09:00+30ssw12480 0.0 1014719
12:00+35sw34320 0.0 10121533
15:00+37wsw58240 0.0 10083175
18:00+33wsw12300 0.0 100712
21:00+28ne34380 0.0 100944
12 april, mon
mon1200:00+27sse114161 0.0 100915
03:00+25e22454 0.0 101013
06:00+24e225530 0.0 101231
09:00+30ese224922 0.0 1014729
12:00+36sw233269 0.0 10111685
15:00+38w57245 0.0 10072549
18:00+31wsw6123250 0.0 1007269
21:00+28w4944100 0.0 1010291
13 april, tue
tue1300:00+29nnw3441100 0.0 101087
03:00+26ene3549100 0.0 1009103
06:00+24n11534 0.0 101118
09:00+31wsw34360 0.0 1013850
12:00+36wsw442532 0.0 10101786
15:00+39wsw66209 0.0 10062617
18:00+34sw22260 0.0 100518
21:00+29n22313 0.0 100726
14 april, wed
wed1400:00+27ese22350 0.0 100822
03:00+25ese225633 0.0 100827
06:00+24ene11643 0.1 101132
09:00+30sse22500 0.0 1012978
12:00+36sw34300 0.0 10091882
15:00+38w69240 0.0 10042908
18:00+34nne232950 0.0 100221
21:00+26wnw22577 1.3 100735
15 april, thu
thu1500:00+26sse11590 1.3 100711
03:00+24se00720 0.0 100817
06:00+24e22710 0.1 101043
09:00+29sse125931 0.0 10111146
12:00+34wsw353893 0.0 10092306
15:00+37nw473169 0.0 10042465
18:00+34sse1132100 0.0 100133
21:00+28nnw4661100 1.2 1006109